CW7779 Weather Reports


Display with metric or nautical units.
time (UTC)temp
F
wind
direction
speed
MPH
gust
MPH
rain 1hr
in
rain 24hr
in
rain mn
in
humidity
%
barometer
mb
20210619150058 82 191 5.0 11.0 0.00 0.00 0.00 75 1017.3
20210619144641 81 193 4.0 11.0 0.00 0.00 0.00 77 1017.2
20210619143105 82 207 6.0 14.0 0.00 0.00 0.00 76 1017.1
20210619141601 82 207 6.0 12.0 0.00 0.00 0.00 75 1017.1
20210619140131 82 230 4.0 11.0 0.00 0.00 0.00 76 1017.2
20210619134613 81 196 5.0 10.0 0.00 0.00 0.00 77 1017.2
20210619133139 81 205 5.0 11.0 0.00 0.00 0.00 77 1017.2
20210619131551 80 265 6.0 11.0 0.00 0.00 0.00 77 1017.2
20210619130117 79 191 3.0 11.0 0.00 0.00 0.00 78 1017.3
20210619124537 79 222 3.0 9.0 0.00 0.00 0.00 79 1017.4
20210619123038 79 231 4.0 9.0 0.00 0.00 0.00 80 1017.4
20210619121530 78 242 4.0 10.0 0.00 0.00 0.00 81 1017.3
20210619120026 77 247 4.0 10.0 0.00 0.00 0.00 81 1017.3
20210619114536 77 218 5.0 14.0 0.00 0.00 0.00 83 1017.2
20210619113019 76 288 3.0 9.0 0.00 0.00 0.00 83 1017.2
20210619111542 75 240 3.0 11.0 0.00 0.00 0.00 84 1017.2
20210619110025 75 178 3.0 9.0 0.00 0.00 0.00 85 1017.3
20210619104552 74 217 2.0 8.0 0.00 0.00 0.00 85 1017.2
20210619103015 74 227 3.0 6.0 0.00 0.00 0.00 85 1017.4
20210619101537 74 240 3.0 7.0 0.00 0.00 0.00 84 1017.2
20210619100018 74 249 2.0 5.0 0.00 0.00 0.00 83 1017.3
20210619094512 74 261 3.0 7.0 0.00 0.00 0.00 83 1017.2
20210619093011 74 248 2.0 7.0 0.00 0.00 0.00 82 1017.2
20210619091512 74 282 2.0 8.0 0.00 0.00 0.00 82 1017.0
20210619090015 74 267 4.0 8.0 0.00 0.00 0.00 82 1016.7
20210619084510 74 241 3.0 9.0 0.00 0.00 0.00 81 1016.7
20210619083020 74 223 4.0 11.0 0.00 0.00 0.00 81 1016.7
20210619081512 75 227 4.0 8.0 0.00 0.00 0.00 81 1016.7
20210619080012 75 190 3.0 8.0 0.00 0.00 0.00 81 1016.7
20210619074509 75 219 2.0 11.0 0.00 0.00 0.00 80 1016.9
20210619073004 75 279 3.0 7.0 0.00 0.00 0.00 79 1017.2
20210619071503 75 259 3.0 8.0 0.00 0.00 0.00 80 1017.2
20210619070008 75 265 3.0 8.0 0.00 0.00 0.00 80 1017.6
20210619064719 76 241 3.0 9.0 0.00 0.00 0.00 81 1017.6
20210619063227 76 209 2.0 7.0 0.00 0.00 0.00 81 1017.4
20210619061645 76 211 4.0 8.0 0.00 0.00 0.00 81 1017.4
20210619060138 76 221 3.0 10.0 0.00 0.00 0.00 81 1017.6
20210619054633 76 225 3.0 9.0 0.00 0.00 0.00 81 1017.6
20210619053229 76 246 3.0 8.0 0.00 0.00 0.00 82 1017.6
20210619051701 76 225 3.0 11.0 0.00 0.00 0.00 82 1017.8
20210619050333 77 237 2.0 8.0 0.00 0.00 0.00 81 1017.9
20210619044615 77 196 4.0 13.0 0.00 0.00 0.00 80 1018.1
20210619043121 77 225 3.0 9.0 0.00 0.00 0.00 78 1018.2
20210619041654 77 234 3.0 12.0 0.00 0.00 0.00 77 1017.8
20210619040157 77 202 3.0 8.0 0.00 0.00 0.00 77 1018.1
20210619034641 77 227 3.0 11.0 0.00 0.00 0.00 77 1018.2
20210619033112 77 212 5.0 11.0 0.00 0.00 0.00 77 1018.3
20210619031631 77 225 5.0 14.0 0.00 0.00 0.00 76 1018.6
20210619030122 77 221 2.0 11.0 0.00 0.00 0.00 75 1018.8
20210619024637 77 183 3.0 11.0 0.00 0.00 0.00 74 1018.9
20210619023100 77 226 4.0 12.0 0.00 0.00 0.00 72 1018.8
20210619021616 78 246 5.0 11.0 0.00 0.00 0.00 70 1018.8
20210619020120 78 188 4.0 10.0 0.00 0.00 0.00 66 1018.7
20210619014620 78 224 6.0 11.0 0.00 0.00 0.00 64 1018.3
20210619013159 78 203 2.0 11.0 0.00 0.00 0.00 63 1017.7
20210619011546 78 173 5.0 16.0 0.00 0.00 0.00 63 1017.7
20210619010055 78 226 4.0 11.0 0.00 0.00 0.00 65 1018.0
20210619004728 78 286 3.0 11.0 0.00 0.00 0.00 64 1018.0
20210619003100 78 221 5.0 10.0 0.00 0.00 0.00 63 1018.2
20210619001640 79 169 5.0 10.0 0.00 0.00 0.00 63 1018.2
20210619000150 79 207 4.0 9.0 0.00 0.00 0.00 64 1018.2
20210618234638 79 221 4.0 9.0 0.00 0.00 0.00 61 1018.2
20210618233053 80 188 2.0 10.0 0.00 0.00 0.00 61 1018.1
20210618231621 80 197 3.0 8.0 0.00 0.00 0.00 58 1018.0
20210618230104 80 208 6.0 9.0 0.00 0.00 0.00 58 1017.8
20210618224553 80 257 5.0 11.0 0.00 0.00 0.00 60 1017.9
20210618223046 81 257 5.0 11.0 0.00 0.00 0.00 56 1017.9
20210618221608 81 234 3.0 10.0 0.00 0.00 0.00 54 1018.1
20210618220054 82 218 2.0 7.0 0.00 0.00 0.00 51 1018.3
20210618214626 82 233 2.0 10.0 0.00 0.00 0.00 50 1018.5
20210618213207 83 149 2.0 10.0 0.00 0.00 0.00 47 1018.6
20210618211552 83 186 4.0 8.0 0.00 0.00 0.00 46 1018.7
20210618210035 84 121 3.0 7.0 0.00 0.00 0.00 46 1018.8
20210618204546 84 176 3.0 8.0 0.00 0.00 0.00 44 1019.0
20210618203053 84 167 3.0 8.0 0.00 0.00 0.00 47 1019.0
20210618201619 85 185 5.0 9.0 0.00 0.00 0.00 48 1019.1
20210618200047 85 124 4.0 8.0 0.00 0.00 0.00 44 1019.3
20210618194606 84 209 2.0 7.0 0.00 0.00 0.00 45 1019.3
20210618193028 85 126 4.0 10.0 0.00 0.00 0.00 47 1019.4
20210618191620 85 171 5.0 8.0 0.00 0.00 0.00 46 1019.7
20210618190029 84 169 3.0 7.0 0.00 0.00 0.00 46 1019.8
20210618184612 85 147 3.0 8.0 0.00 0.00 0.00 46 1019.9
20210618183027 84 165 3.0 8.0 0.00 0.00 0.00 48 1020.1
20210618181543 85 108 2.0 7.0 0.00 0.00 0.00 48 1020.3
20210618180025 84 131 4.0 8.0 0.00 0.00 0.00 50 1020.4
20210618174524 84 138 3.0 8.0 0.00 0.00 0.00 53 1020.4
20210618173019 84 164 3.0 7.0 0.00 0.00 0.00 55 1020.4
20210618171527 84 197 3.0 7.0 0.00 0.00 0.00 54 1020.5
20210618170030 83 163 5.0 9.0 0.00 0.00 0.00 55 1020.6
20210618164544 84 132 4.0 8.0 0.00 0.00 0.00 57 1020.6
20210618163023 83 180 4.0 8.0 0.00 0.00 0.00 60 1020.6
20210618161534 84 150 3.0 9.0 0.00 0.00 0.00 57 1020.8
20210618160024 84 139 4.0 10.0 0.00 0.00 0.00 57 1020.6
20210618154514 84 140 5.0 8.0 0.00 0.00 0.00 57 1020.4
20210618153022 83 140 5.0 9.0 0.00 0.00 0.00 65 1020.5
20210618151544 82 127 2.0 9.0 0.00 0.00 0.00 62 1020.6